Race Coverage Navigation

TS # 49 / Hancock, MD  2019

 


TS STATS
TS Distance 37.1 
Total Distance 2861.64 
Miles To Go 179.99 
TS Climbing 2840 
Total Climbing
TS  Elevation
TS  Net Elevation 4521 
Map Filename Open Map 
Directions Filename  
Latitude 39.7 
Longitude -78.18 
Google Map  TimeStation Map 


TS Arrival Data
Arr Ord  #/Name Arrival DT TS Dst Avg This TS Avg Overall
 1 377 - Christoph Strasser  06/19/2019 12:03 37.1  11.65  15.27 
 2 279 - Marko Baloh  06/20/2019 18:38 37.1  11.42  13.13 
 3 609 - Jakob Olsen  06/20/2019 20:59 37.1  13.49  12.97 
 4 T411 - team alpha - tischlerei groemmer  06/20/2019 22:20 37.1  19.88  22.54 
 5 T800 - Backstedt Racing Project 14  06/20/2019 23:06 37.1  19.53  22.42 
 6 T404 - Gentlemen of speed  06/21/2019 7:34 37.1  19.88  20.99 
 7 T401 - Data Techniques powered by Networks Centre  06/21/2019 11:56 37.1  26.82  20.33 
 8 T805 - Team Oceanside  06/21/2019 12:54 37.1  15.57  20.25 
 9 T807 - Team ZOE International  06/21/2019 13:05 37.1  17.53  20.23 
 10 T407 - Julian Becker   06/21/2019 14:59 37.1  17.39  19.91 
 11 T201 - EAT WELL  06/21/2019 15:59 37.1  15.14  19.74 
 12 T802 - Scorchers  06/21/2019 16:03 37.1  742  19.8 
 13 T802 - Scorchers  06/21/2019 17:04 37.1  742  19.8 
 14 617 - SOLO.kiwi (Craig Harper)  06/21/2019 17:09 37.1  9.98  11.88 
 15 367 - Daniela Genovesi  06/21/2019 17:49 37.1  10.86  11.84 
 16 T804 - Team FSHD Skyland Trail  06/21/2019 18:48 37.1  20.8  19.43 
 17 416 - Leah Goldstein  06/21/2019 19:08 37.1  10.12  11.77 
 18 T416 - Team Rotary Raams Polio  06/21/2019 19:50 37.1  15.9  19.28 
 19 T408 - Radeln-fuer-Kinder (Cycling-for-Kids)  06/21/2019 20:26 37.1  19.03  19.19 
 20 623 - Ultra Paka Racing Team (Daniel Polman)  06/21/2019 21:22 37.1  10.4  11.67 
 21 622 - Thomas Odom-Team Kyle Pease Foundation  06/21/2019 22:21 37.1  11.72  11.62 
 22 T808 - Antonia's Friends 2019  06/21/2019 23:37 37.1  14.55  18.83 
 23 T400 - Cantastic4  06/22/2019 0:04 37.1  14.55  18.72 
 24 329 - Peter Oyler  06/22/2019 0:37 37.1  4.76  11.54 
 25 T406 - Operation Walk Midwest  06/22/2019 3:00 37.1  13.33  18.38 
 26 611 - Marcelo Soares " MIXIRICA "  06/22/2019 4:32 37.1  15.14  11.35 
 27 T418 - The Opportunists  06/22/2019 5:03 37.1  11.9  18.16 
 28 615 - Philipp Amhof  06/22/2019 5:26 37.1  5.58  11.3 
 29 603 - Alan Bradley  06/22/2019 8:37 37.1  9.51  11.17 
 30 529 - Isa Pulver  06/22/2019 10:32 37.1  11.78  11.07 
 31 T410 - Soap-Aid  06/22/2019 11:06 37.1  13.74  17.47 
 32 442 - Joe Barr  06/22/2019 14:02 37.1  9.35  10.94 
 33 T412 - Team Aspect  06/22/2019 14:41 37.1  16.99  17.1 
 34 T414 - Brazil Nuts  06/22/2019 14:50 37.1  17.95  17.09 
 35 612 - Markus K. Brandl  06/22/2019 15:02 37.1  6.83  10.89 
 36 T803 - Team EndoPark  06/22/2019 15:17 37.1  13.66  17.06 
 37 411 - Geoff Brunner  06/22/2019 15:24 37.1  11.02  10.89 
 38 510 - John C. Tarlton  06/22/2019 16:48 37.1  7.2  10.83 
 39 559 - Team Martin RAAM 2019 (Martin Bergmeister)  06/22/2019 17:13 37.1  10.31  10.81 
 40 T202 - Integra Medical - BAA Racing  06/22/2019 18:31 37.1  13.74  16.69 
 41 T405 - High Rollers  06/22/2019 18:33 37.1  16.13  16.71 
 42 T415 - TEAM FIRE VELO 935  06/22/2019 18:38 37.1  15.14  16.71 
 43 T204 - Lucan CRC  06/22/2019 21:43 37.1  18.4  16.38 
 44 T200 - AIR RELAX GoPro TEAM BRASIL  06/22/2019 22:06 37.1  15.25  16.34 
 45 618 - GREGORY ROBINSON  06/22/2019 22:27 37.1  8.7  10.59 
 46 T206 - Project Linear Acceleration  06/22/2019 23:38 37.1  12.23  16.21 
 47 610 - Kabir Rachure  06/22/2019 23:43 37.1  6.79  10.54 
 48 T402 - EA/WFP RAAM Team  06/23/2019 0:01 37.1  12.79  16.18 
 49 T413 - TEAM BRASIL - SKIPPER  06/23/2019 1:28 37.1  6.07  16.07 
 50 T801 - Mind Over Matter  06/23/2019 3:49 37.1  11.47  15.87 
 51 568 - Alexandra Meixner  06/23/2019 4:42 37.1  4.87  10.34 
 52 T417 - Team4RAAM 2019 powered by TGW Living Logistics  06/23/2019 5:25 37.1  12.94  15.73 
 53 T806 - Team SuperMarrow  06/23/2019 5:29 37.1  10.81  15.73 
 54 T403 - EKJ Denmark  06/23/2019 8:29 37.1  13.83  15.45 
 55 399 - Valerio Zamboni  06/23/2019 11:40 37.1  12.16  10.11 
 56 604 - Chieko Ozawa  06/23/2019 11:58 37.1  7.2  10.08 
 57 424 - Team i RON man Veterans supporting Veterans  06/23/2019 16:40 37.1  6.36  9.93 
 58 161 - Seana Hogan  06/24/2019 3:26 37.1  9.51  9.56 
 59 T210 - Bike Wine Team  06/24/2019 8:09 37.1  11.9  13.69